Location: Hoyos del Collado
(40.3594°N, 5.2003°W)
Time: 12:10:57
(UTC+00:00)

ISS - Pass Details

Date: 21 June 2024
Orbit: 410 x 424 km, 51.6° (Epoch: 13 July)

Event Time Altitude Azimuth Distance (km) Brightness Sun altitude
Exits shadow 03:16:33 - 156° (SSE) 1,627 -1.0 -14.5°
Reaches altitude 10° 03:17:39 10° 139° (SE) 1,480 -1.1 -14.3°
Maximum altitude 03:18:16 10° 128° (SE) 1,458 -1.0 -14.3°
Drops below altitude 10° 03:18:54 10° 117° (ESE) 1,484 -0.8 -14.2°
Sets 03:22:32 0° 75° (ENE) 2,333 1.0 -13.7°
